"2016-01-27 00:00:00",1320411,5.541,177.9,6.798,1.352,7.946,100.8653,1.507,2.844,24.34,0,109.9,13.25,2.26,139.9
"2016-01-27 00:00:30",1320412,4.418,170.6,6.231,1.153,5.291,100.8605,1.495,2.657,24.27,0,109.8,13.25,2.25,132.6
"2016-01-27 00:01:00",1320413,4.666,170.4,6.33,1.269,5.524,100.8577,1.488,2.652,24.23,0,109.8,13.25,2.24,132.4
"2016-01-27 00:01:30",1320414,5.028,172.4,6.798,1.351,6.619,100.8597,1.493,2.758,24.27,0,109.8,13.25,2.25,134.4
"2016-01-27 00:02:00",1320415,5.561,175.9,7.033,1.381,7.639,100.8512,1.471,2.694,24.22,0,109.8,13.25,2.23,137.9
"2016-01-27 00:02:30",1320416,5.451,174.6,7.005,1.368,7.756,100.84,1.443,2.735,24.27,0,109.8,13.24,2.20,136.6
"2016-01-27 00:03:00",1320417,5.383,174.7,6.975,1.391,7.555,100.8318,1.422,2.737,24.21,0,109.8,13.25,2.18,136.7
"2016-01-27 00:03:30",1320418,4.477,168.9,6.412,1.167,5.519,100.8321,1.422,2.585,23.94,0,109.8,13.25,2.18,130.9
"2016-01-27 00:04:00",1320419,5.143,172.3,6.92,1.376,6.679,100.8281,1.412,2.648,24.02,0,109.8,13.25,2.17,134.3
"2016-01-27 00:04:30",1320420,4.804,170.1,6.739,1.331,6.396,100.8154,1.38,2.576,24.01,0,109.8,13.25,2.14,132.1
"2016-01-27 00:05:00",1320421,4.986,172.5,7.23,1.336,7.318,100.8095,1.365,2.601,24.16,0,109.8,13.25,2.12,134.5
"2016-01-27 00:05:30",1320422,5.31,173.5,6.918,1.361,7.799,100.7979,1.335,2.641,24.22,0,109.8,13.24,2.09,135.5
"2016-01-27 00:06:00",1320423,4.749,171.3,6.604,1.378,6.129,100.799,1.338,2.58,24.17,0,109.8,13.25,2.09,133.3
"2016-01-27 00:06:30",1320424,5.137,174.6,6.775,1.373,6.667,100.7894,1.314,2.519,24.1,0,109.8,13.26,2.07,136.6
"2016-01-27 00:07:00",1320425,4.64,174,6.611,1.297,6.613,100.7809,1.292,2.535,24.09,0,109.8,13.26,2.05,136.0
"2016-01-27 00:07:30",1320426,4.902,175.5,7.061,1.374,7.042,100.7728,1.271,2.491,23.89,0,109.8,13.26,2.03,137.5
"2016-01-27 00:08:00",1320427,4.451,175.2,6.643,1.307,6.784,100.7733,1.273,2.528,23.84,0,109.8,13.26,2.03,137.2
"2016-01-27 00:08:30",1320428,5.473,181.4,6.348,1.288,8.41,100.7719,1.269,2.575,23.89,0,109.8,13.26,2.03,143.4
"2016-01-27 00:09:00",1320429,4.506,175.7,6.974,1.262,6.176,100.7629,1.246,2.428,23.81,0,109.8,13.26,2.00,137.7
"2016-01-27 00:09:30",1320430,4.501,177.4,6.78,1.254,5.955,100.7575,1.232,2.471,23.95,0,109.8,13.26,1.99,139.4
"2016-01-27 00:10:00",1320431,4.382,177.4,6.648,1.278,6.015,100.7485,1.209,2.42,23.95,0,109.8,13.27,1.97,139.4
"2016-01-27 00:10:30",1320432,5.095,179.5,7.299,1.336,7.384,100.7454,1.201,2.433,23.95,0,109.8,13.27,1.96,141.5
"2016-01-27 00:11:00",1320433,5.139,186.3,9.21,1.415,7.591,100.7462,1.203,2.485,24.12,0,109.8,13.27,1.96,148.3
"2016-01-27 00:11:30",1320434,4.748,177.9,7.206,1.361,6.925,100.7459,1.203,2.388,24.12,0,109.8,13.27,1.96,139.9
"2016-01-27 00:12:00",1320435,4.611,178.2,7.154,1.36,6.762,100.7448,1.2,2.385,24.13,0,109.8,13.27,1.96,140.2
"2016-01-27 00:12:30",1320436,4.409,178.5,6.957,1.302,6.09,100.7355,1.176,2.404,24.13,0,109.8,13.27,1.93,140.5
"2016-01-27 00:13:00",1320437,4.861,178.8,6.916,1.381,6.919,100.727,1.154,2.4,24.15,0,109.8,13.27,1.91,140.8
"2016-01-27 00:13:30",1320438,4.825,177,6.801,1.38,6.962,100.716,1.126,2.358,24.16,0,109.8,13.27,1.88,139.0
"2016-01-27 00:14:00",1320439,5.546,182.1,6.801,1.288,8.06,100.7126,1.118,2.425,24.25,0,109.8,13.27,1.87,144.1
"2016-01-27 00:14:30",1320440,4.78,178.7,6.489,1.296,6.9,100.7126,1.118,2.372,24.26,0,109.8,13.28,1.87,140.7
"2016-01-27 00:15:00",1320441,4.462,176.7,6.573,1.263,5.492,100.7126,1.118,2.313,24.1,0,109.8,13.28,1.87,138.7
"2016-01-27 00:15:30",1320442,4.827,178.2,6.748,1.372,6.621,100.7132,1.119,2.312,24.29,0,109.8,13.28,1.88,140.2
"2016-01-27 00:16:00",1320443,5.092,178.3,6.978,1.489,6.657,100.7117,1.115,2.362,24.5,0,109.8,13.28,1.87,140.3
"2016-01-27 00:16:30",1320444,5.223,179.7,6.985,1.386,7.269,100.7064,1.102,2.339,24.43,0,109.8,13.28,1.86,141.7
"2016-01-27 00:17:00",1320445,5.781,182.6,6.824,1.298,8.06,100.705,1.098,2.379,24.46,0,109.8,13.28,1.85,144.6
"2016-01-27 00:17:30",1320446,4.849,177.4,6.353,1.211,5.816,100.703,1.093,2.236,24.33,0,109.8,13.28,1.85,139.4
"2016-01-27 00:18:00",1320447,5.23,180,7.005,1.37,6.859,100.7002,1.086,2.3,24.24,0,109.7,13.28,1.84,142.0
"2016-01-27 00:18:30",1320448,5.237,179.3,6.744,1.337,6.346,100.6929,1.067,2.269,24.29,0,109.7,13.28,1.82,141.3
"2016-01-27 00:19:00",1320449,5.608,180.6,7.172,1.329,7.674,100.6957,1.075,2.321,24.56,0,109.7,13.28,1.83,142.6
"2016-01-27 00:19:30",1320450,5.626,181.8,7.165,1.368,7.92,100.6957,1.075,2.299,24.5,0,109.7,13.28,1.83,143.8
"2016-01-27 00:20:00",1320451,5.497,180.3,6.838,1.368,7.185,100.6963,1.076,2.251,24.61,0,109.7,13.28,1.83,142.3
"2016-01-27 00:20:30",1320452,5.364,181.1,6.94,1.349,6.475,100.6963,1.076,2.278,24.75,0,109.7,13.28,1.83,143.1
"2016-01-27 00:21:00",1320453,5.279,181,6.746,1.266,5.696,100.6974,1.079,2.206,24.63,0,109.7,13.28,1.83,143.0
"2016-01-27 00:21:30",1320454,6.038,182.9,6.936,1.342,7.177,100.6955,1.074,2.322,24.97,0,109.7,13.28,1.83,144.9
"2016-01-27 00:22:00",1320455,6.052,183.4,7.214,1.374,7.533,100.6927,1.067,2.32,25.19,0,109.7,13.28,1.82,145.4
"2016-01-27 00:22:30",1320456,6.157,185.9,6.246,1.312,8.47,100.6876,1.054,2.333,25.47,0,109.7,13.29,1.81,147.9
"2016-01-27 00:23:00",1320457,5.824,184.4,6.962,1.443,6.783,100.6873,1.053,2.228,25.6,0,109.7,13.29,1.81,146.4
"2016-01-27 00:23:30",1320458,5.117,182.6,5.701,1.058,5.629,100.687,1.052,2.169,25.55,0,109.7,13.29,1.81,144.6
"2016-01-27 00:24:00",1320459,5.174,180.5,6.22,1.224,5.557,100.6879,1.055,2.162,25.73,0,109.8,13.29,1.81,142.5
"2016-01-27 00:24:30",1320460,6.013,183.4,6.787,1.416,7.375,100.6879,1.055,2.307,25.97,0,109.7,13.29,1.81,145.4
"2016-01-27 00:25:00",1320461,6.228,186.9,7.162,1.373,7.86,100.6885,1.056,2.297,25.74,0,109.7,13.3,1.81,148.9
"2016-01-27 00:25:30",1320462,5.971,191.1,6.654,1.327,8.25,100.6859,1.05,2.294,25.4,0,109.7,13.3,1.81,153.1
"2016-01-27 00:26:00",1320463,5.818,192.1,8.96,1.412,7.319,100.684,1.045,2.226,25.27,0,109.7,13.3,1.80,154.1
"2016-01-27 00:26:30",1320464,5.237,188.1,6.541,1.182,5.923,100.6845,1.046,2.14,25.21,0,109.7,13.3,1.80,150.1
"2016-01-27 00:27:00",1320465,5.434,194.9,5.576,1.314,6.181,100.6817,1.039,2.142,25.2,0,109.7,13.3,1.79,156.9
"2016-01-27 00:27:30",1320466,5.882,201.7,6.938,1.402,7.664,100.6823,1.04,2.284,25.37,0,109.7,13.3,1.80,163.7
"2016-01-27 00:28:00",1320467,6.016,199.6,6.879,1.322,8.26,100.6817,1.039,2.264,25.47,0,109.7,13.3,1.79,161.6
"2016-01-27 00:28:30",1320468,6.11,199.9,7.214,1.306,8.35,100.6811,1.037,2.294,25.65,0,109.7,13.3,1.79,161.9
"2016-01-27 00:29:00",1320469,5.614,197.6,7.014,1.448,7.372,100.6809,1.037,2.257,25.75,0,109.7,13.3,1.79,159.6
"2016-01-27 00:29:30",1320470,5.069,193.1,5.09,1.21,6.004,100.6797,1.034,2.205,25.82,0,109.7,13.3,1.79,155.1
"2016-01-27 00:30:00",1320471,4.692,191.7,7.534,1.146,5.88,100.6809,1.037,2.209,25.95,0,109.7,13.3,1.79,153.7
"2016-01-27 00:30:30",1320472,5.884,199.5,7.121,1.41,7.627,100.6795,1.033,2.225,25.98,0,109.7,13.3,1.79,161.5
"2016-01-27 00:31:00",1320473,5.952,194.7,9.33,1.293,8.17,100.6792,1.032,2.229,26,0,109.7,13.3,1.79,156.7
"2016-01-27 00:31:30",1320474,5.509,194.1,7.347,1.392,7.685,100.6792,1.032,2.272,26.03,0,109.7,13.3,1.79,156.1
"2016-01-27 00:32:00",1320475,5.531,197.1,8.23,1.303,6.949,100.6789,1.032,2.221,26.03,0,109.7,13.3,1.79,159.1
"2016-01-27 00:32:30",1320476,5.771,199.5,10,1.263,7.17,100.6789,1.032,2.241,26.16,0,109.7,13.3,1.79,161.5
"2016-01-27 00:33:00",1320477,5.228,197.2,6.58,1.334,6.433,100.6789,1.032,2.241,26.17,0,109.7,13.3,1.79,159.2
"2016-01-27 00:33:30",1320478,6.076,201.2,7.121,1.459,7.589,100.6789,1.032,2.253,26.16,0,109.7,13.3,1.79,163.2
"2016-01-27 00:34:00",1320479,6.46,208.8,9.24,1.253,8.24,100.6797,1.034,2.29,26.32,0,109.7,13.3,1.79,170.8
"2016-01-27 00:34:30",1320480,5.749,203.3,8.03,1.362,7.502,100.6812,1.037,2.302,26.42,0,109.7,13.3,1.79,165.3
"2016-01-27 00:35:00",1320481,5.664,203.9,7.642,1.361,6.487,100.6814,1.038,2.238,26.37,0,109.7,13.3,1.79,165.9
"2016-01-27 00:35:30",1320482,5.628,203.3,7.285,1.445,6.498,100.6843,1.045,2.268,26.28,0,109.7,13.3,1.80,165.3
"2016-01-27 00:36:00",1320483,5.56,203.5,7.774,1.431,6.806,100.6849,1.047,2.186,26.15,0,109.7,13.3,1.80,165.5
"2016-01-27 00:36:30",1320484,6.131,208.6,7.285,1.523,8.07,100.6866,1.051,2.296,26.37,0,109.7,13.3,1.81,170.6
"2016-01-27 00:37:00",1320485,6.678,209.2,7.642,1.343,8.03,100.6883,1.056,2.297,26.51,0,109.7,13.3,1.81,171.2
"2016-01-27 00:37:30",1320486,6.22,207.2,7.488,1.267,8.14,100.6903,1.061,2.268,26.62,0,109.7,13.3,1.82,169.2
"2016-01-27 00:38:00",1320487,4.845,198.2,5.741,1.021,6.014,100.6917,1.064,2.272,26.62,0,109.7,13.3,1.82,160.2
"2016-01-27 00:38:30",1320488,5.556,200.4,9.87,1.431,6.911,100.69,1.06,2.186,26.55,0,109.7,13.29,1.82,162.4
"2016-01-27 00:39:00",1320489,6.023,206.4,9.51,1.41,7.796,100.6937,1.069,2.271,26.56,0,109.7,13.3,1.83,168.4
"2016-01-27 00:39:30",1320490,5.489,203.6,6.899,1.408,6.779,100.6948,1.072,2.22,26.54,0,109.7,13.3,1.83,165.6
"2016-01-27 00:40:00",1320491,5.804,197,7.184,1.351,7.855,100.6957,1.074,2.304,26.59,0,109.7,13.3,1.83,159.0
"2016-01-27 00:40:30",1320492,5.192,195.5,7.573,1.325,6.352,100.6971,1.078,2.251,26.38,0,109.7,13.3,1.83,157.5
"2016-01-27 00:41:00",1320493,5.555,209.7,7.02,1.398,6.624,100.6982,1.081,2.284,26.39,0,109.7,13.3,1.84,171.7
"2016-01-27 00:41:30",1320494,5.325,205.4,8.06,1.476,6.4,100.6991,1.083,2.168,26.38,0,109.7,13.3,1.84,167.4
"2016-01-27 00:42:00",1320495,5.909,207,6.698,1.338,7.791,100.698,1.08,2.304,26.48,0,109.7,13.3,1.84,169.0
"2016-01-27 00:42:30",1320496,5.601,203.5,7.656,1.349,7.283,100.6974,1.079,2.289,26.47,0,109.7,13.3,1.83,165.5
"2016-01-27 00:43:00",1320497,5.95,213.5,8.45,1.431,7.529,100.6997,1.085,2.305,26.5,0,109.7,13.3,1.84,175.5
"2016-01-27 00:43:30",1320498,5.759,206.1,7.816,1.4,6.656,100.6988,1.082,2.252,26.63,0,109.7,13.31,1.84,168.1
"2016-01-27 00:44:00",1320499,5.767,205.5,6.325,1.404,6.391,100.6971,1.078,2.169,26.57,0,109.7,13.31,1.83,167.5
"2016-01-27 00:44:30",1320500,5.571,209.3,8.46,1.134,6.579,100.6977,1.08,2.291,26.77,0,109.7,13.3,1.84,171.3
"2016-01-27 00:45:00",1320501,5.501,210.2,6.102,1.419,7.292,100.6982,1.081,2.322,26.82,0,109.7,13.31,1.84,172.2
"2016-01-27 00:45:30",1320502,6.313,213.9,7.928,1.397,8.05,100.6974,1.079,2.339,26.86,0,109.7,13.31,1.83,175.9
"2016-01-27 00:46:00",1320503,5.732,210.8,7.111,1.393,7.421,100.6988,1.082,2.315,27.04,0,109.7,13.31,1.84,172.8
"2016-01-27 00:46:30",1320504,5.699,206.4,6.833,1.39,6.429,100.7002,1.086,2.168,26.89,0,109.7,13.31,1.84,168.4
"2016-01-27 00:47:00",1320505,5.967,211.8,8.05,1.313,7.005,100.7011,1.088,2.251,27.09,0,109.7,13.31,1.84,173.8
"2016-01-27 00:47:30",1320506,5.653,215.3,8.33,1.399,6.558,100.7048,1.098,2.261,27.32,0,109.7,13.31,1.85,177.3
"2016-01-27 00:48:00",1320507,5.799,217.9,9.49,1.37,7.015,100.7057,1.1,2.298,27.63,0,109.7,13.31,1.86,179.9
"2016-01-27 00:48:30",1320508,6.675,220.6,7.468,1.308,8.29,100.7065,1.102,2.329,28.11,0,109.7,13.31,1.86,182.6
"2016-01-27 00:49:00",1320509,5.976,215.7,7.248,1.328,7.046,100.7057,1.1,2.336,28.14,0,109.7,13.31,1.86,177.7
"2016-01-27 00:49:30",1320510,6.165,212.4,6.919,1.344,6.795,100.7051,1.098,2.278,27.98,0,109.7,13.31,1.85,174.4
"2016-01-27 00:50:00",1320511,5.657,219.9,7.267,1.185,6.124,100.7051,1.098,2.267,28.51,0,109.7,13.31,1.85,181.9
"2016-01-27 00:50:30",1320512,6.508,224.1,6.86,1.273,8.08,100.7054,1.099,2.299,28.96,0,109.7,13.31,1.86,186.1
"2016-01-27 00:51:00",1320513,6.229,223.9,7.124,1.344,7.864,100.7048,1.098,2.353,28.93,0,109.7,13.31,1.85,185.9
"2016-01-27 00:51:30",1320514,6.357,225.9,7.285,1.315,8.08,100.7074,1.104,2.338,28.98,0,109.7,13.31,1.86,187.9
"2016-01-27 00:52:00",1320515,5.743,218.4,6.636,1.367,6.649,100.7085,1.107,2.315,29,0,109.7,13.31,1.86,180.4
"2016-01-27 00:52:30",1320516,6.042,226.6,5.847,1.354,6.974,100.7096,1.11,2.254,29.07,0,109.7,13.3,1.87,188.6
"2016-01-27 00:53:00",1320517,5.965,227.3,7.969,1.326,6.674,100.7102,1.112,2.286,29.46,0,109.7,13.31,1.87,189.3
"2016-01-27 00:53:30",1320518,5.519,223.5,9.87,1.309,6.854,100.7105,1.112,2.31,29.51,0,109.7,13.31,1.87,185.5
"2016-01-27 00:54:00",1320519,6.001,229.8,7.018,1.358,8.08,100.7099,1.111,2.36,29.53,0,109.7,13.31,1.87,191.8
"2016-01-27 00:54:30",1320520,6.344,232.5,8.46,1.215,8.15,100.7122,1.117,2.319,29.37,0,109.7,13.31,1.87,194.5
"2016-01-27 00:55:00",1320521,6.718,234.9,6.759,1.372,7.391,100.7131,1.119,2.348,29.36,0,109.7,13.3,1.87,196.9
"2016-01-27 00:55:30",1320522,5.827,225.4,9.3,1.351,6.201,100.7168,1.128,2.254,29.04,0,109.7,13.31,1.88,187.4
"2016-01-27 00:56:00",1320523,6.374,231.2,8.88,1.378,7.227,100.7224,1.143,2.374,29.17,0,109.7,13.31,1.90,193.2
"2016-01-27 00:56:30",1320524,5.558,234.6,9.47,1.42,6.997,100.7278,1.156,2.338,29.79,0,109.7,13.31,1.91,196.6
"2016-01-27 00:57:00",1320525,5.807,242.5,7.814,1.384,7.337,100.7278,1.156,2.346,30,0,109.7,13.31,1.91,204.5
"2016-01-27 00:57:30",1320526,5.494,237.9,9.03,1.34,7.423,100.7292,1.16,2.359,30.14,0,109.6,13.31,1.92,199.9
"2016-01-27 00:58:00",1320527,6.243,235.1,11.01,1.35,7.33,100.73,1.162,2.379,29.97,0,109.7,13.31,1.92,197.1
"2016-01-27 00:58:30",1320528,6.072,225,7.999,1.44,6.538,100.7298,1.161,2.34,29.79,0,109.7,13.31,1.92,187.0
"2016-01-27 00:59:00",1320529,5.745,234.1,7.048,1.45,6.968,100.7286,1.159,2.388,29.8,0,109.7,13.31,1.91,196.1
"2016-01-27 00:59:30",1320530,6.357,243.7,6.964,1.334,8.08,100.7298,1.161,2.425,30.17,0,109.7,13.31,1.92,205.7
"2016-01-27 01:00:00",1320531,6.092,239.4,7.638,1.39,6.529,100.7295,1.161,2.373,30.2,0,109.7,13.32,1.92,201.4
"2016-01-27 01:00:30",1320532,5.954,236.9,7.162,1.405,6.359,100.73,1.162,2.304,29.76,0,109.7,13.32,1.92,198.9
"2016-01-27 01:01:00",1320533,6.74,240.9,8.34,1.402,7.364,100.73,1.162,2.331,30,0,109.7,13.31,1.92,202.9
"2016-01-27 01:01:30",1320534,6.945,239.1,7.397,1.353,7.896,100.73,1.162,2.422,30.23,0,109.7,13.32,1.92,201.1
"2016-01-27 01:02:00",1320535,6.25,233.4,7.987,1.436,7.631,100.73,1.162,2.4,30.05,0,109.7,13.32,1.92,195.4
"2016-01-27 01:02:30",1320536,5.727,230.4,6.814,1.495,7.558,100.7295,1.161,2.391,29.66,0,109.7,13.32,1.92,192.4
"2016-01-27 01:03:00",1320537,6.228,242.2,8.8,1.564,7.022,100.7306,1.164,2.389,29.67,0,109.7,13.32,1.92,204.2
"2016-01-27 01:03:30",1320538,6.327,235.1,7.985,1.329,6.626,100.7295,1.161,2.348,29.5,0,109.7,13.32,1.92,197.1
"2016-01-27 01:04:00",1320539,6.559,231.9,5.844,1.39,7.031,100.7286,1.159,2.376,29.34,0,109.7,13.32,1.91,193.9
"2016-01-27 01:04:30",1320540,6.842,227.8,9.34,1.398,7.875,100.73,1.162,2.423,29.02,0,109.7,13.32,1.92,189.8
"2016-01-27 01:05:00",1320541,5.475,227.3,7.296,1.382,8.11,100.7298,1.161,2.422,28.97,0,109.7,13.32,1.92,189.3
"2016-01-27 01:05:30",1320542,5.573,226.4,7.786,1.414,6.832,100.7298,1.161,2.362,28.7,0,109.7,13.32,1.92,188.4
"2016-01-27 01:06:00",1320543,5.225,237.5,8.64,1.231,6.365,100.7301,1.162,2.321,28.73,0,109.7,13.32,1.92,199.5
"2016-01-27 01:06:30",1320544,6.774,237.1,7.031,1.391,6.9,100.7298,1.161,2.351,28.83,0,109.7,13.32,1.92,199.1
"2016-01-27 01:07:00",1320545,6.286,230.7,7.761,1.339,6.763,100.7312,1.165,2.362,28.97,0,109.7,13.32,1.92,192.7
"2016-01-27 01:07:30",1320546,6.285,236.1,7.354,1.333,8.12,100.7301,1.162,2.437,29.17,0,109.7,13.31,1.92,198.1
"2016-01-27 01:08:00",1320547,6.009,240.5,7.64,1.368,8.01,100.7303,1.163,2.423,29.3,0,109.7,13.31,1.92,202.5
"2016-01-27 01:08:30",1320548,5.719,236.7,9.18,1.462,6.8,100.7289,1.159,2.355,29.37,0,109.7,13.31,1.92,198.7
"2016-01-27 01:09:00",1320549,4.584,236.4,5.81,1.067,5.087,100.7261,1.152,2.312,29.46,0,109.7,13.31,1.91,198.4
"2016-01-27 01:09:30",1320550,5.974,242.2,8.61,1.575,7.17,100.7275,1.156,2.346,29.75,0,109.7,13.31,1.91,204.2
"2016-01-27 01:10:00",1320551,5.714,236.1,7.574,1.35,6.721,100.7244,1.148,2.372,30,0,109.7,13.31,1.90,198.1
"2016-01-27 01:10:30",1320552,6.322,245.5,7.713,1.37,8.1,100.7225,1.143,2.423,30.13,0,109.7,13.31,1.90,207.5
"2016-01-27 01:11:00",1320553,5.827,240.4,7.479,1.331,7.84,100.7213,1.14,2.391,30.19,0,109.7,13.31,1.90,202.4
"2016-01-27 01:11:30",1320554,5.076,234.5,7.353,1.334,6.151,100.7248,1.149,2.306,30.23,0,109.7,13.31,1.90,196.5
"2016-01-27 01:12:00",1320555,5.2,238,5.853,1.462,6.281,100.7259,1.152,2.37,30.5,0,109.7,13.31,1.91,200.0
"2016-01-27 01:12:30",1320556,5.573,242.5,6.564,1.313,6.76,100.7253,1.15,2.359,30.67,0,109.7,13.32,1.91,204.5
"2016-01-27 01:13:00",1320557,5.41,243.2,8.11,1.237,6.477,100.7276,1.156,2.376,30.73,0,109.7,13.32,1.91,205.2
"2016-01-27 01:13:30",1320558,5.873,247.2,6.373,1.343,7.856,100.7287,1.159,2.373,30.46,0,109.7,13.32,1.91,209.2
"2016-01-27 01:14:00",1320559,5.141,238.1,8.97,1.409,6.816,100.729,1.16,2.372,30.55,0,109.7,13.32,1.92,200.1
"2016-01-27 01:14:30",1320560,5.317,244.5,8.02,1.362,6.597,100.7287,1.159,2.325,30.8,0,109.7,13.32,1.91,206.5
"2016-01-27 01:15:00",1320561,4.706,244.5,8.26,1.21,5.829,100.7299,1.162,2.338,30.82,0,109.7,13.32,1.92,206.5
"2016-01-27 01:15:30",1320562,5.189,244.9,6.807,1.3,6.718,100.7291,1.16,2.334,30.91,0,109.7,13.32,1.92,206.9
"2016-01-27 01:16:00",1320563,5.603,245.1,7.798,1.43,7.094,100.7211,1.139,2.317,31.13,0,109.7,13.32,1.90,207.1
"2016-01-27 01:16:30",1320564,5.352,244.8,7.232,1.338,7.674,100.7169,1.129,2.41,31.35,0,109.7,13.32,1.88,206.8
"2016-01-27 01:17:00",1320565,4.96,241.7,6.882,1.397,6.269,100.7161,1.126,2.237,31.21,0,109.7,13.33,1.88,203.7
"2016-01-27 01:17:30",1320566,4.83,236.3,6.402,1.403,6.377,100.7101,1.111,2.348,31.47,0,109.7,13.33,1.87,198.3
"2016-01-27 01:18:00",1320567,4.561,231.5,6.454,1.246,5.604,100.7045,1.097,2.307,31.62,0,109.7,13.33,1.85,193.5
"2016-01-27 01:18:30",1320568,5.376,235.9,6.573,1.408,6.907,100.7022,1.091,2.273,31.58,0,109.7,13.33,1.85,197.9
"2016-01-27 01:19:00",1320569,5.501,241.5,7.643,1.4,7.42,100.7045,1.097,2.375,31.57,0,109.7,13.33,1.85,203.5
"2016-01-27 01:19:30",1320570,5.02,233.6,7.158,1.317,6.789,100.7042,1.096,2.281,31.52,0,109.7,13.33,1.85,195.6
"2016-01-27 01:20:00",1320571,5.068,237.4,7.298,1.407,6.878,100.7053,1.099,2.255,31.58,0,109.7,13.33,1.85,199.4
"2016-01-27 01:20:30",1320572,4.48,228.8,6.652,1.269,5.604,100.705,1.098,2.207,31.62,0,109.7,13.33,1.85,190.8
"2016-01-27 01:21:00",1320573,5.865,236.2,7.604,1.439,7.528,100.7002,1.086,2.384,31.68,0,109.7,13.33,1.84,198.2
"2016-01-27 01:21:30",1320574,5.366,238.2,6.615,1.447,7.325,100.6937,1.07,2.261,31.34,0,109.7,13.33,1.83,200.2
"2016-01-27 01:22:00",1320575,5.798,233.5,7.018,1.189,8.05,100.6824,1.041,2.309,31.19,0,109.7,13.33,1.80,195.5
"2016-01-27 01:22:30",1320576,4.719,231.5,5.457,1.119,5.77,100.6759,1.024,2.191,30.89,0,109.7,13.33,1.78,193.5
"2016-01-27 01:23:00",1320577,4.927,242,8.27,1.527,6.717,100.6739,1.019,2.28,30.94,0,109.7,13.33,1.77,204.0
"2016-01-27 01:23:30",1320578,4.448,238.5,9.71,1.303,6.513,100.6728,1.016,2.211,30.94,0,109.7,13.33,1.77,200.5
"2016-01-27 01:24:00",1320579,4.65,236.6,10.07,1.512,7.061,100.6745,1.02,2.278,31.04,0,109.7,13.32,1.78,198.6
"2016-01-27 01:24:30",1320580,4.788,243.9,8.15,1.403,6.821,100.6751,1.022,2.238,31.05,0,109.7,13.32,1.78,205.9
"2016-01-27 01:25:00",1320581,5.355,243.5,8.97,1.32,7.186,100.6759,1.024,2.238,31.39,0,109.7,13.33,1.78,205.5
"2016-01-27 01:25:30",1320582,5.372,252.5,7.733,1.402,6.984,100.6725,1.015,2.215,31.25,0,109.7,13.32,1.77,214.5
"2016-01-27 01:26:00",1320583,4.594,245.4,7.585,1.312,6.298,100.664,0.994,2.215,30.84,0,109.7,13.32,1.75,207.4
"2016-01-27 01:26:30",1320584,4.391,244.6,6.372,1.307,6.143,100.6615,0.987,2.17,30.88,0,109.7,13.32,1.74,206.6
"2016-01-27 01:27:00",1320585,5.375,246.1,7.032,1.207,6.948,100.6592,0.981,2.169,31.22,0,109.7,13.32,1.74,208.1
"2016-01-27 01:27:30",1320586,6.077,246.3,6.271,1.352,7.035,100.6598,0.983,2.157,31.44,0,109.7,13.32,1.74,208.3
"2016-01-27 01:28:00",1320587,4.667,237.2,5.549,1.137,5.842,100.6525,0.964,2.17,31.64,0,109.7,13.32,1.72,199.2
"2016-01-27 01:28:30",1320588,5.144,241.6,6.661,1.325,6.018,100.6471,0.95,2.166,31.69,0,109.7,13.32,1.71,203.6
"2016-01-27 01:29:00",1320589,5.786,243.8,8.14,1.32,7.126,100.6451,0.945,2.157,31.81,0,109.7,13.33,1.70,205.8
"2016-01-27 01:29:30",1320590,5.693,236.3,7.276,1.407,6.324,100.6448,0.945,2.196,31.75,0,109.7,13.33,1.70,198.3
"2016-01-27 01:30:00",1320591,5.828,237.5,6.59,1.338,7.292,100.6451,0.945,2.152,31.59,0,109.7,13.33,1.70,199.5
"2016-01-27 01:30:30",1320592,5.128,242,6.259,1.313,6.346,100.644,0.943,2.1,31.72,0,109.7,13.33,1.70,204.0
"2016-01-27 01:31:00",1320593,5.266,248.2,7.259,1.394,6.591,100.6366,0.924,2.121,31.83,0,109.7,13.33,1.68,210.2
"2016-01-27 01:31:30",1320594,4.596,242,6.102,1.178,5.746,100.6309,0.909,2.077,31.96,0,109.7,13.33,1.66,204.0
"2016-01-27 01:32:00",1320595,5.152,249.1,7.115,1.331,6.092,100.6281,0.902,2.111,31.89,0,109.7,13.33,1.66,211.1
"2016-01-27 01:32:30",1320596,4.954,245.1,6.656,1.235,5.978,100.627,0.899,2.117,31.66,0,109.7,13.34,1.65,207.1
"2016-01-27 01:33:00",1320597,6.031,251.4,6.902,1.386,7.818,100.6216,0.885,2.205,31.3,0,109.7,13.34,1.64,213.4
"2016-01-27 01:33:30",1320598,5.546,243.5,8.04,1.478,6.514,100.6131,0.864,2.035,30.93,0,109.7,13.34,1.62,205.5
"2016-01-27 01:34:00",1320599,5.239,245.9,8.36,1.345,6.571,100.6114,0.86,2.07,31.36,0,109.7,13.34,1.61,207.9
"2016-01-27 01:34:30",1320600,5.137,244.2,9.11,1.539,6.116,100.6114,0.86,2.118,31.51,0,109.6,13.34,1.61,206.2
"2016-01-27 01:35:00",1320601,5.345,247.6,9.15,1.484,6.96,100.6114,0.86,2.021,31.46,0,109.7,13.34,1.61,209.6
"2016-01-27 01:35:30",1320602,5.268,245.9,8.73,1.43,6.951,100.6114,0.86,2.089,31.63,0,109.7,13.34,1.61,207.9
"2016-01-27 01:36:00",1320603,4.743,238.8,10.53,1.284,6.511,100.6114,0.86,2.1,31.7,0,109.7,13.34,1.61,200.8
"2016-01-27 01:36:30",1320604,4.944,236.4,5.429,1.391,6.306,100.6106,0.857,2.056,31.76,0,109.7,13.34,1.61,198.4
"2016-01-27 01:37:00",1320605,4.478,246,7.644,1.25,5.601,100.6046,0.842,2.033,31.7,0,109.7,13.34,1.60,208.0
"2016-01-27 01:37:30",1320606,5.041,250.7,7.608,1.444,6.365,100.5995,0.829,2.045,31.91,0,109.7,13.34,1.58,212.7
"2016-01-27 01:38:00",1320607,4.391,246.5,6.871,1.407,5.474,100.593,0.813,2.009,32.04,0,109.7,13.34,1.57,208.5
"2016-01-27 01:38:30",1320608,4.737,246.6,8.26,1.259,6,100.591,0.808,2.054,32.13,0,109.7,13.34,1.56,208.6
"2016-01-27 01:39:00",1320609,4.596,246.2,6.571,1.498,6.479,100.5907,0.807,1.999,32.09,0,109.6,13.34,1.56,208.2
"2016-01-27 01:39:30",1320610,3.919,244.3,7.888,1.383,5.764,100.5871,0.797,2,32.12,0,109.6,13.34,1.55,206.3
"2016-01-27 01:40:00",1320611,3.465,238.7,8.55,1.279,5.529,100.5817,0.784,2.025,32.26,0,109.7,13.34,1.54,200.7
"2016-01-27 01:40:30",1320612,4.969,245.5,11.99,1.43,6.682,100.5777,0.774,1.968,32.28,0,109.6,13.34,1.53,207.5
"2016-01-27 01:41:00",1320613,4.88,236.9,9.81,1.353,6.359,100.5774,0.773,2.046,32.45,0,109.6,13.34,1.53,198.9
"2016-01-27 01:41:30",1320614,3.905,238,10.28,1.338,6.218,100.5774,0.773,1.97,32.3,0,109.7,13.34,1.53,200.0
"2016-01-27 01:42:00",1320615,4.297,239,8.18,1.372,6.254,100.5774,0.773,1.997,32.42,0,109.6,13.34,1.53,201.0
"2016-01-27 01:42:30",1320616,4.31,242.7,7.025,1.398,6.104,100.5766,0.771,2.029,32.4,0,109.6,13.34,1.53,204.7
"2016-01-27 01:43:00",1320617,4.365,251.8,7.635,1.418,6.32,100.5681,0.749,1.938,32.32,0,109.6,13.34,1.50,213.8
"2016-01-27 01:43:30",1320618,4.059,236,7.056,1.471,5.549,100.5622,0.734,1.928,32.16,0,109.6,13.34,1.49,198.0
"2016-01-27 01:44:00",1320619,4.905,242.6,10.25,1.322,7.383,100.5585,0.725,2.023,32.04,0,109.6,13.34,1.48,204.6
"2016-01-27 01:44:30",1320620,4.263,245.9,8.39,1.369,5.646,100.5506,0.704,1.889,32.14,0,109.6,13.34,1.46,207.9
"2016-01-27 01:45:00",1320621,4.901,246.6,6.975,1.314,7.678,100.5457,0.692,1.994,32.28,0,109.6,13.34,1.45,208.6
"2016-01-27 01:45:30",1320622,4.038,242,7.177,1.147,5.189,100.5438,0.687,1.894,32.23,0,109.6,13.34,1.44,204.0
"2016-01-27 01:46:00",1320623,4.326,247.4,9.95,1.177,6.005,100.5438,0.687,1.929,32.04,0,109.6,13.34,1.44,209.4
"2016-01-27 01:46:30",1320624,4.964,247.4,7.657,1.453,6.927,100.5438,0.687,1.934,32.18,0,109.6,13.34,1.44,209.4
"2016-01-27 01:47:00",1320625,5.572,252.9,8.69,1.363,7.424,100.5438,0.687,1.925,32.08,0,109.6,13.34,1.44,214.9
"2016-01-27 01:47:30",1320626,4.634,250.1,6.161,1.299,6.001,100.5443,0.688,1.939,31.77,0,109.7,13.35,1.44,212.1
"2016-01-27 01:48:00",1320627,4.911,246.4,8.08,1.344,6.576,100.5438,0.687,1.916,32.11,0,109.7,13.35,1.44,208.4